Weather History for Vacaville, CA

Change the Weather History Date:

Friday, April 5, 2013

  Actual Average Record
Temperature  
Mean Temperature 60 °F -  
Max Temperature 68 °F 69 °F 88 °F (1957)
Min Temperature 53 °F 43 °F 34 °F (2003)
Degree Days  
Heating Degree Days 6    
Growing Degree Days 10 (Base 50)    
Moisture  
Dew Point 50 °F    
Average Humidity 76    
Maximum Humidity 94    
Minimum Humidity 56    
Precipitation  
Precipitation 0.00 in - - ()
Sea Level Pressure  
Sea Level Pressure 30.14 in    
Wind  
Wind Speed 5 mph (SW)    
Max Wind Speed 15 mph    
Max Gust Speed 22 mph    
Visibility 10 miles    
Events      
Averages and records for this station are not official NWS values.
T = Trace of Precipitation, MM = Missing Value Source: NWS Daily Summary

Daily Weather History Graph

Daily Weather History Graph

Search for Another Location

Airport:

Trip Planner

Search our weather history database for the weather conditions in past years. The results will help you decide how hot, cold, wet, or windy it might be!

Date:

Astronomy

Apr. 05, 2013 Rise Set
Actual Time 6:46 AM PDT 7:35 PM PDT
Civil Twilight 6:19 AM PDT 8:02 PM PDT
Nautical Twilight 5:47 AM PDT 8:33 PM PDT
Astronomical Twilight 5:14 AM PDT 9:06 PM PDT
Moon 3:53 AM PDT (4/5) 3:08 PM PDT (4/5)
Length of Visible Light 13h 42m
Length of Day
12h 49m
Waning Crescent, 22% of the Moon is Illuminated
Apr 5
Waning Crescent
Apr 10
New
Apr 18
First Quarter
Apr 25
Full
May 2
Last Quarter

Hourly Weather History & Observations

Time (PDT) Temp. Dew Point Humidity Pressure Visibility Wind Dir Wind Speed Gust Speed Precip Events Conditions
12:44 AM 55.4 °F 51.8 °F 88% 30.11 in 10.0 mi Calm Calm - N/A   Mostly Cloudy
12:53 AM 55.0 °F 51.1 °F 86% 30.12 in 10.0 mi North 4.6 mph - N/A   Mostly Cloudy
1:10 AM 55.4 °F 51.8 °F 88% 30.12 in 10.0 mi SW 3.5 mph - N/A   Mostly Cloudy
1:46 AM 55.4 °F 51.8 °F 88% 30.13 in 10.0 mi Variable 3.5 mph - N/A   Mostly Cloudy
1:53 AM 55.9 °F 51.1 °F 84% 30.12 in 10.0 mi East 4.6 mph - N/A   Overcast
2:16 AM 53.6 °F 51.8 °F 94% 30.13 in 10.0 mi Calm Calm - N/A   Scattered Clouds
2:53 AM 54.0 °F 51.1 °F 90% 30.13 in 10.0 mi Calm Calm - N/A   Mostly Cloudy
3:53 AM 54.0 °F 51.1 °F 90% 30.13 in 10.0 mi SW 3.5 mph - N/A   Mostly Cloudy
4:53 AM 54.0 °F 51.1 °F 90% 30.14 in 10.0 mi Calm Calm - N/A   Overcast
5:53 AM 54.0 °F 51.1 °F 90% 30.14 in 10.0 mi SW 5.8 mph - N/A   Mostly Cloudy
6:53 AM 53.1 °F 51.1 °F 93% 30.14 in 10.0 mi SW 4.6 mph - N/A   Mostly Cloudy
7:53 AM 54.0 °F 52.0 °F 93% 30.15 in 10.0 mi SSW 6.9 mph - N/A   Partly Cloudy
8:53 AM 59.0 °F 52.0 °F 78% 30.16 in 10.0 mi SSW 8.1 mph - N/A   Clear
9:53 AM 62.1 °F 50.0 °F 65% 30.15 in 10.0 mi Variable 6.9 mph - N/A   Clear
10:53 AM 64.0 °F 48.9 °F 58% 30.16 in 10.0 mi WSW 9.2 mph - N/A   Clear
11:53 AM 64.0 °F 51.1 °F 63% 30.17 in 10.0 mi WSW 15.0 mph 18.4 mph N/A   Partly Cloudy
12:53 PM 66.0 °F 50.0 °F 56% 30.17 in 10.0 mi West 10.4 mph 21.9 mph N/A   Clear
1:53 PM 64.9 °F 50.0 °F 58% 30.14 in 10.0 mi West 11.5 mph - N/A   Clear
2:53 PM 64.0 °F 51.1 °F 63% 30.14 in 10.0 mi West 10.4 mph - N/A   Clear
3:53 PM 66.9 °F 52.0 °F 59% 30.12 in 10.0 mi WSW 11.5 mph 17.3 mph N/A   Scattered Clouds
4:53 PM 64.0 °F 48.9 °F 58% 30.12 in 10.0 mi SW 12.7 mph - N/A   Clear
5:53 PM 64.0 °F 48.9 °F 58% 30.11 in 10.0 mi WSW 12.7 mph - N/A   Clear
6:53 PM 61.0 °F 48.9 °F 64% 30.12 in 10.0 mi SW 15.0 mph 21.9 mph N/A   Clear
7:53 PM 59.0 °F 48.9 °F 69% 30.11 in 10.0 mi SW 13.8 mph - N/A   Clear
8:53 PM 57.0 °F 48.9 °F 74% 30.13 in 10.0 mi Calm Calm - N/A   Clear
9:53 PM 57.0 °F 46.9 °F 69% 30.15 in 10.0 mi WSW 5.8 mph - N/A   Clear
10:53 PM 55.9 °F 46.9 °F 72% 30.15 in 10.0 mi WSW 5.8 mph - N/A   Clear
11:53 PM 53.1 °F 48.0 °F 83% 30.15 in 10.0 mi SSW 3.5 mph - N/A   Clear